Weather History for KGPT - April, 2013

Change the Weather History Date:

Monday, April 1, 2013

  Actual Average Record
Temperature  
Mean Temperature 66 °F -  
Max Temperature 78 °F 74 °F 87 °F (1978)
Min Temperature 55 °F 54 °F 37 °F (1987)
Cooling Degree Days 1    
Growing Degree Days 16 (Base 50)    
Moisture  
Dew Point 56 °F    
Average Humidity 84    
Maximum Humidity 100    
Minimum Humidity 40    
Precipitation  
Precipitation 0.00 in - - ()
Sea Level Pressure  
Sea Level Pressure 30.00 in    
Wind  
Wind Speed 5 mph (NNW)    
Max Wind Speed 10 mph    
Max Gust Speed -    
Visibility 7 miles    
Events Fog    
Averages and records for this station are not official NWS values.
T = Trace of Precipitation, MM = Missing Value Source: NWS Daily Summary

Daily Weather History Graph

Daily Weather History Graph

Search for Another Location

Airport or City:

Trip Planner

Search our weather history database for the weather conditions in past years. The results will help you decide how hot, cold, wet, or windy it might be!

Date:

Astronomy

Apr. 01, 2013 Rise Set
Actual Time 6:45 AM CDT 7:15 PM CDT
Civil Twilight 6:20 AM CDT 7:39 PM CDT
Nautical Twilight 5:52 AM CDT 8:07 PM CDT
Astronomical Twilight 5:23 AM CDT 8:36 PM CDT
Moon 12:05 AM CDT (4/1) 10:49 AM CDT (4/1)
Length of Visible Light 13h 18m
Length of Day
12h 30m
Waning Gibbous, 67% of the Moon is Illuminated
Apr 1
Waning Gibbous
Apr 2
Last Quarter
Apr 10
New
Apr 18
First Quarter
Apr 25
Full

Hourly Weather History & Observations

Time (CDT) Temp. Dew Point Humidity Pressure Visibility Wind Dir Wind Speed Gust Speed Precip Events Conditions
12:03 AM 60.8 °F 59.0 °F 94% 29.95 in 10.0 mi NNW 9.2 mph - N/A   Partly Cloudy
12:19 AM 60.8 °F 59.0 °F 94% 29.95 in 10.0 mi NNW 8.1 mph - N/A   Mostly Cloudy
12:37 AM 60.8 °F 57.2 °F 88% 29.95 in 10.0 mi NNW 8.1 mph - N/A   Overcast
12:53 AM 60.1 °F 57.9 °F 93% 29.95 in 10.0 mi North 6.9 mph - N/A   Overcast
1:17 AM 60.8 °F 57.2 °F 88% 29.94 in 10.0 mi NNW 5.8 mph - N/A   Scattered Clouds
1:53 AM 59.0 °F 57.0 °F 93% 29.94 in 10.0 mi Calm Calm - N/A   Clear
2:53 AM 55.4 °F 55.4 °F 100% 29.93 in 10.0 mi WNW 3.5 mph - N/A   Clear
3:53 AM 57.0 °F 55.9 °F 96% 29.95 in 10.0 mi Calm Calm - N/A   Clear
4:29 AM 55.4 °F 55.4 °F 100% 29.97 in 8.0 mi WNW 4.6 mph - N/A   Scattered Clouds
4:38 AM 55.4 °F 55.4 °F 100% 29.97 in 2.5 mi Calm Calm - N/A   Mostly Cloudy
4:53 AM 55.9 °F 55.0 °F 97% 29.97 in 1.0 mi Calm Calm - N/A   Overcast
5:01 AM 55.4 °F 53.6 °F 94% 29.97 in 0.8 mi West 3.5 mph - N/A   Mist
5:17 AM 55.4 °F 53.6 °F 94% 29.98 in 0.2 mi Calm Calm - N/A Fog Fog
5:40 AM 55.4 °F 53.6 °F 94% 29.99 in 0.2 mi Calm Calm - N/A Fog Fog
5:53 AM 55.4 °F 53.6 °F 94% 29.99 in 0.2 mi Calm Calm - N/A Fog Fog
6:53 AM 55.0 °F 54.0 °F 96% 30.03 in 0.2 mi Calm Calm - N/A Fog Fog
7:53 AM 55.9 °F 55.0 °F 97% 30.04 in 0.8 mi NW 6.9 mph - N/A   Mist
8:27 AM 55.4 °F 55.4 °F 100% 30.06 in 3.0 mi NNW 9.2 mph - N/A   Overcast
8:53 AM 55.9 °F 55.0 °F 97% 30.06 in 5.0 mi North 10.4 mph - N/A   Overcast
9:53 AM 57.2 °F 55.4 °F 94% 30.07 in 7.0 mi NNW 6.9 mph - N/A   Overcast
10:53 AM 61.0 °F 57.0 °F 87% 30.08 in 9.0 mi NW 8.1 mph - N/A   Overcast
11:31 AM 64.4 °F 57.2 °F 77% 30.07 in 10.0 mi NW 9.2 mph - N/A   Scattered Clouds
11:53 AM 66.0 °F 57.0 °F 73% 30.07 in 10.0 mi NNW 8.1 mph - N/A   Partly Cloudy
12:53 PM 71.1 °F 57.9 °F 63% 30.06 in 10.0 mi North 10.4 mph - N/A   Partly Cloudy
1:53 PM 73.9 °F 55.9 °F 53% 30.04 in 10.0 mi Variable 6.9 mph - N/A   Clear
2:53 PM 75.0 °F 55.0 °F 50% 30.02 in 10.0 mi North 9.2 mph - N/A   Clear
3:53 PM 75.9 °F 54.0 °F 46% 30.00 in 10.0 mi Variable 3.5 mph - N/A   Clear
4:53 PM 77.0 °F 51.1 °F 40% 29.99 in 10.0 mi NE 4.6 mph - N/A   Clear
5:53 PM 75.9 °F 52.0 °F 43% 29.99 in 10.0 mi NE 4.6 mph - N/A   Clear
6:53 PM 69.1 °F 59.0 °F 70% 30.00 in 10.0 mi South 3.5 mph - N/A   Clear
7:53 PM 66.0 °F 59.0 °F 78% 30.01 in 10.0 mi Calm Calm - N/A   Clear
8:53 PM 61.0 °F 57.9 °F 90% 30.03 in 10.0 mi Calm Calm - N/A   Clear
9:53 PM 59.0 °F 57.0 °F 93% 30.03 in 9.0 mi Calm Calm - N/A   Clear
10:53 PM 57.9 °F 55.9 °F 93% 30.04 in 7.0 mi Calm Calm - N/A   Clear
11:53 PM 57.0 °F 55.0 °F 93% 30.06 in 7.0 mi Calm Calm - N/A   Clear